EZY79PL EGPH-EGSS

Flight info

Callsign EZY79PL
Flight time 1h 7m
Altitude 33000
Route GOSAM P600 FENIK L612 NAVSO DCT AKOMU DCT VAMEB UL612 LISTO
Aircraft A20N/M-SDE2E3FGHIRWXY/LB1

Departure

Time 2026-04-26 10:44
Airport Edinburgh Airport (EGPH)

Arrival

Time 2026-04-26 11:51
Airport London Stansted Airport (EGSS)
Time Latitude Longitude Altitude Speed Heading
2026-04-26 10:43 55.92045 -3.45824 3096 ft 185 kts 238°
2026-04-26 10:44 55.91359 -3.47786 3740 ft 191 kts 238°
2026-04-26 10:44 55.90656 -3.49785 4435 ft 195 kts 238°
2026-04-26 10:44 55.89925 -3.51850 5158 ft 200 kts 238°
2026-04-26 10:44 55.89169 -3.53973 5760 ft 213 kts 238°
2026-04-26 10:45 55.88350 -3.56261 6459 ft 223 kts 238°
2026-04-26 10:45 55.87510 -3.58597 7231 ft 230 kts 238°
2026-04-26 10:45 55.86643 -3.60994 8045 ft 235 kts 237°
2026-04-26 10:45 55.85759 -3.63393 8900 ft 236 kts 237°
2026-04-26 10:46 55.84848 -3.65858 9793 ft 238 kts 236°
2026-04-26 10:46 55.83944 -3.68293 10687 ft 239 kts 236°
2026-04-26 10:46 55.83025 -3.70755 11526 ft 240 kts 236°
2026-04-26 10:46 55.82106 -3.73210 12391 ft 240 kts 236°
2026-04-26 10:47 55.81191 -3.75642 13207 ft 241 kts 236°
2026-04-26 10:47 55.80274 -3.78068 14005 ft 241 kts 236°
2026-04-26 10:47 55.79356 -3.80484 14810 ft 241 kts 236°
2026-04-26 10:47 55.78420 -3.82941 15607 ft 240 kts 236°
2026-04-26 10:48 55.77485 -3.85382 16400 ft 240 kts 236°
2026-04-26 10:48 55.76548 -3.87819 17181 ft 240 kts 236°
2026-04-26 10:48 55.75625 -3.90206 17930 ft 239 kts 236°
2026-04-26 10:48 55.74700 -3.92618 18638 ft 240 kts 238°
2026-04-26 10:49 55.73656 -3.95023 18976 ft 257 kts 221°
2026-04-26 10:49 55.71999 -3.96511 19282 ft 280 kts 195°
2026-04-26 10:49 55.70020 -3.97026 19605 ft 298 kts 191°
2026-04-26 10:49 55.67912 -3.97617 19913 ft 313 kts 194°
2026-04-26 10:50 55.65760 -3.98487 20208 ft 328 kts 198°
2026-04-26 10:50 55.64272 -3.99212 20403 ft 338 kts 199°
2026-04-26 10:50 55.61190 -4.00892 20766 ft 357 kts 201°
2026-04-26 10:50 55.58803 -4.02277 21037 ft 371 kts 201°
2026-04-26 10:51 55.56337 -4.03734 21450 ft 380 kts 201°
2026-04-26 10:51 55.51221 -4.06375 22599 ft 392 kts 188°
2026-04-26 10:51 55.48494 -4.06070 23142 ft 403 kts 171°
2026-04-26 10:52 55.45855 -4.04297 23700 ft 412 kts 155°
2026-04-26 10:52 55.43313 -4.01819 24263 ft 416 kts 154°
2026-04-26 10:52 55.40803 -3.99319 24764 ft 420 kts 154°
2026-04-26 10:52 55.38255 -3.96798 25373 ft 420 kts 154°
2026-04-26 10:53 55.35711 -3.94308 25955 ft 422 kts 155°
2026-04-26 10:53 55.33131 -3.91804 26440 ft 425 kts 155°
2026-04-26 10:53 55.30558 -3.89319 26890 ft 428 kts 155°
2026-04-26 10:54 55.25324 -3.84291 27788 ft 433 kts 155°
2026-04-26 10:54 55.22665 -3.81752 28225 ft 436 kts 156°
2026-04-26 10:54 55.19982 -3.79399 28625 ft 437 kts 158°
2026-04-26 10:54 55.17234 -3.77039 29020 ft 441 kts 158°
2026-04-26 10:55 55.14484 -3.74675 29470 ft 442 kts 158°
2026-04-26 10:55 55.11762 -3.72334 30022 ft 440 kts 158°
2026-04-26 10:55 55.09009 -3.69968 30573 ft 439 kts 158°
2026-04-26 10:55 55.06280 -3.67629 31052 ft 438 kts 159°
2026-04-26 10:56 55.03576 -3.65316 31502 ft 438 kts 159°
2026-04-26 10:56 55.00827 -3.62967 31930 ft 438 kts 159°
2026-04-26 10:56 54.98117 -3.60659 32299 ft 439 kts 159°
2026-04-26 10:56 54.95373 -3.58326 32630 ft 441 kts 159°
2026-04-26 10:57 54.92590 -3.55965 32977 ft 442 kts 159°
2026-04-26 10:57 54.89843 -3.53636 33247 ft 444 kts 159°
2026-04-26 10:57 54.84249 -3.48899 33257 ft 444 kts 159°
2026-04-26 10:58 54.78715 -3.44229 33256 ft 445 kts 159°
2026-04-26 10:58 54.73158 -3.39550 33255 ft 444 kts 159°
2026-04-26 10:59 54.67618 -3.34903 33257 ft 445 kts 160°
2026-04-26 10:59 54.62035 -3.30234 33252 ft 444 kts 160°
2026-04-26 11:00 54.56491 -3.25611 33247 ft 445 kts 160°
2026-04-26 11:00 54.50934 -3.20992 33242 ft 444 kts 160°
2026-04-26 11:01 54.45390 -3.16396 33239 ft 445 kts 160°
2026-04-26 11:01 54.39834 -3.11805 33241 ft 445 kts 160°
2026-04-26 11:02 54.34271 -3.07222 33243 ft 445 kts 160°
2026-04-26 11:02 54.28689 -3.02634 33251 ft 445 kts 159°
2026-04-26 11:03 54.23109 -2.98062 33261 ft 444 kts 159°
2026-04-26 11:03 54.17558 -2.93539 33268 ft 444 kts 160°
2026-04-26 11:04 54.11917 -2.89386 33274 ft 443 kts 162°
2026-04-26 11:04 54.06266 -2.85263 33274 ft 444 kts 161°
2026-04-26 11:05 54.00590 -2.81138 33280 ft 444 kts 161°
2026-04-26 11:05 53.94895 -2.77009 33282 ft 445 kts 162°
2026-04-26 11:06 53.89216 -2.72905 33284 ft 445 kts 161°
2026-04-26 11:06 53.83527 -2.68809 33285 ft 444 kts 161°
2026-04-26 11:07 53.77862 -2.64741 33287 ft 445 kts 161°
2026-04-26 11:07 53.72140 -2.60645 33285 ft 444 kts 161°
2026-04-26 11:08 53.66481 -2.56607 33285 ft 445 kts 161°
2026-04-26 11:08 53.60768 -2.52541 33286 ft 445 kts 161°
2026-04-26 11:09 53.55105 -2.48521 33287 ft 445 kts 161°
2026-04-26 11:09 53.49383 -2.44472 33289 ft 445 kts 161°
2026-04-26 11:10 53.43715 -2.40473 33291 ft 445 kts 161°
2026-04-26 11:10 53.38010 -2.36464 33293 ft 445 kts 161°
2026-04-26 11:11 53.32272 -2.32434 33293 ft 445 kts 162°
2026-04-26 11:11 53.26614 -2.28477 33291 ft 444 kts 162°
2026-04-26 11:12 53.20932 -2.24516 33293 ft 444 kts 162°
2026-04-26 11:12 53.15296 -2.20143 33286 ft 448 kts 156°
2026-04-26 11:13 53.09994 -2.14697 33287 ft 453 kts 148°
2026-04-26 11:13 53.04936 -2.08529 33287 ft 453 kts 147°
2026-04-26 11:14 52.99885 -2.02371 33283 ft 453 kts 147°
2026-04-26 11:14 52.94815 -1.96223 33273 ft 453 kts 147°
2026-04-26 11:15 52.92271 -1.93149 33018 ft 452 kts 147°
2026-04-26 11:15 52.89742 -1.90093 32680 ft 449 kts 147°
2026-04-26 11:15 52.87226 -1.87056 32215 ft 446 kts 147°
2026-04-26 11:15 52.84748 -1.84072 31639 ft 444 kts 147°
2026-04-26 11:16 52.82219 -1.81033 30996 ft 443 kts 147°
2026-04-26 11:16 52.79756 -1.78078 30321 ft 444 kts 147°
2026-04-26 11:16 52.77256 -1.75091 29618 ft 443 kts 148°
2026-04-26 11:16 52.74710 -1.72290 28912 ft 442 kts 151°
2026-04-26 11:17 52.72067 -1.69749 28330 ft 437 kts 155°
2026-04-26 11:17 52.69408 -1.67455 27858 ft 432 kts 155°
2026-04-26 11:17 52.66748 -1.65170 27380 ft 427 kts 155°
2026-04-26 11:17 52.64130 -1.62922 26898 ft 423 kts 155°
2026-04-26 11:18 52.61556 -1.60712 26415 ft 420 kts 155°
2026-04-26 11:18 52.58974 -1.58500 25932 ft 416 kts 155°
2026-04-26 11:18 52.56424 -1.56316 25449 ft 413 kts 155°
2026-04-26 11:18 52.53875 -1.54137 24966 ft 410 kts 155°
2026-04-26 11:19 52.51373 -1.51998 24489 ft 406 kts 154°
2026-04-26 11:19 52.48889 -1.49879 24021 ft 404 kts 154°
2026-04-26 11:19 52.46396 -1.47753 23545 ft 401 kts 154°
2026-04-26 11:19 52.43946 -1.45669 23084 ft 398 kts 154°
2026-04-26 11:20 52.41482 -1.43574 22605 ft 396 kts 154°
2026-04-26 11:20 52.39872 -1.42205 22293 ft 395 kts 154°
2026-04-26 11:20 52.36633 -1.39457 21656 ft 391 kts 154°
2026-04-26 11:20 52.34251 -1.37440 21179 ft 389 kts 154°
2026-04-26 11:21 52.31860 -1.35419 20702 ft 387 kts 154°
2026-04-26 11:21 52.29464 -1.33366 20217 ft 384 kts 153°
2026-04-26 11:21 52.27164 -1.31210 20027 ft 380 kts 152°
2026-04-26 11:21 52.24863 -1.29040 20043 ft 382 kts 152°
2026-04-26 11:22 52.22537 -1.26849 20018 ft 383 kts 152°
2026-04-26 11:22 52.20227 -1.24673 19586 ft 383 kts 152°
2026-04-26 11:22 52.17944 -1.22526 19112 ft 380 kts 152°
2026-04-26 11:22 52.15672 -1.20390 18639 ft 377 kts 152°
2026-04-26 11:23 52.13407 -1.18262 18163 ft 374 kts 152°
2026-04-26 11:23 52.11190 -1.16180 17700 ft 371 kts 152°
2026-04-26 11:23 52.08965 -1.14095 17228 ft 368 kts 152°
2026-04-26 11:23 52.06733 -1.12008 16758 ft 366 kts 152°
2026-04-26 11:24 52.04565 -1.09982 16288 ft 363 kts 152°
2026-04-26 11:24 52.02378 -1.07905 15806 ft 362 kts 148°
2026-04-26 11:24 52.00602 -1.05109 15319 ft 362 kts 124°
2026-04-26 11:24 51.99665 -1.01328 15088 ft 358 kts 100°
2026-04-26 11:25 51.99545 -0.97274 15128 ft 361 kts 90°
2026-04-26 11:25 51.99575 -0.93262 15151 ft 361 kts 89°
2026-04-26 11:25 51.99603 -0.89189 15169 ft 361 kts 90°
2026-04-26 11:25 51.99621 -0.85117 15189 ft 361 kts 90°
2026-04-26 11:26 51.99630 -0.81077 15226 ft 362 kts 90°
2026-04-26 11:26 51.99632 -0.76980 15241 ft 363 kts 90°
2026-04-26 11:26 51.99631 -0.72875 15267 ft 363 kts 90°
2026-04-26 11:26 51.99627 -0.68789 15280 ft 363 kts 90°
2026-04-26 11:27 51.99621 -0.64670 15284 ft 364 kts 90°
2026-04-26 11:27 51.99614 -0.60590 15273 ft 362 kts 89°
2026-04-26 11:27 51.99694 -0.56581 14949 ft 354 kts 86°
2026-04-26 11:27 51.99836 -0.52654 14050 ft 351 kts 86°
2026-04-26 11:28 51.99989 -0.48692 13019 ft 348 kts 86°
2026-04-26 11:28 52.00130 -0.44873 12068 ft 343 kts 86°
2026-04-26 11:28 52.00264 -0.41052 11117 ft 337 kts 86°
2026-04-26 11:28 52.00389 -0.37324 10301 ft 327 kts 86°
2026-04-26 11:29 52.00507 -0.33729 9805 ft 309 kts 87°
2026-04-26 11:29 52.00617 -0.30350 9375 ft 292 kts 87°
2026-04-26 11:29 52.00718 -0.27134 8770 ft 285 kts 87°
2026-04-26 11:29 52.00817 -0.23964 8067 ft 281 kts 87°
2026-04-26 11:30 52.00914 -0.20828 7365 ft 278 kts 87°
2026-04-26 11:30 52.00975 -0.18789 6916 ft 276 kts 87°
2026-04-26 11:30 52.01101 -0.14664 6344 ft 273 kts 87°
2026-04-26 11:30 52.01192 -0.11607 6074 ft 266 kts 87°
2026-04-26 11:31 52.01279 -0.08698 5963 ft 254 kts 87°
2026-04-26 11:31 52.01362 -0.05902 5949 ft 238 kts 87°
2026-04-26 11:31 52.01226 -0.03302 5821 ft 234 kts 112°
2026-04-26 11:31 52.00226 -0.01253 5701 ft 236 kts 143°
2026-04-26 11:32 51.98842 0.00229 5570 ft 236 kts 146°
2026-04-26 11:32 51.97483 0.01707 5323 ft 235 kts 144°
2026-04-26 11:32 51.96136 0.03208 5070 ft 234 kts 145°
2026-04-26 11:32 51.94685 0.04343 4800 ft 234 kts 169°
2026-04-26 11:33 51.93077 0.04215 4556 ft 235 kts 192°
2026-04-26 11:33 51.91494 0.03482 4303 ft 235 kts 197°
2026-04-26 11:33 51.89943 0.02708 4052 ft 234 kts 195°
2026-04-26 11:33 51.88382 0.01981 3798 ft 233 kts 194°
2026-04-26 11:34 51.86823 0.01303 3546 ft 231 kts 193°
2026-04-26 11:34 51.85284 0.00663 3280 ft 229 kts 192°
2026-04-26 11:34 51.83743 0.00042 3003 ft 227 kts 192°
2026-04-26 11:34 51.82220 -0.00565 2905 ft 216 kts 192°
2026-04-26 11:35 51.80810 -0.01126 2834 ft 204 kts 192°
2026-04-26 11:35 51.79501 -0.01642 2860 ft 184 kts 189°
2026-04-26 11:35 51.78305 -0.01616 2775 ft 165 kts 162°
2026-04-26 11:35 51.77343 -0.00806 2693 ft 148 kts 137°
2026-04-26 11:36 51.76722 0.00443 2629 ft 142 kts 116°
2026-04-26 11:36 51.76436 0.01997 2601 ft 152 kts 95°
2026-04-26 11:36 51.76435 0.03757 2570 ft 157 kts 88°
2026-04-26 11:36 51.76734 0.05452 2514 ft 158 kts 60°
2026-04-26 11:37 51.77416 0.06853 2474 ft 160 kts 48°
2026-04-26 11:37 51.78210 0.08090 2456 ft 159 kts 44°
2026-04-26 11:37 51.79040 0.09296 2460 ft 161 kts 44°
2026-04-26 11:37 51.79872 0.10515 2409 ft 161 kts 44°
2026-04-26 11:38 51.80693 0.11738 2208 ft 160 kts 45°
2026-04-26 11:38 51.81501 0.12955 1998 ft 159 kts 45°
2026-04-26 11:38 51.82316 0.14184 1785 ft 158 kts 45°
2026-04-26 11:38 51.83087 0.15343 1560 ft 146 kts 45°
2026-04-26 11:39 51.83802 0.16418 1388 ft 137 kts 45°
2026-04-26 11:39 51.84489 0.17461 1197 ft 134 kts 46°
2026-04-26 11:39 51.85168 0.18490 1082 ft 134 kts 46°
2026-04-26 11:39 51.85847 0.19508 923 ft 133 kts 45°
2026-04-26 11:40 51.86536 0.20527 716 ft 133 kts 46°
2026-04-26 11:40 51.87204 0.21532 525 ft 131 kts 44°
2026-04-26 11:40 51.87864 0.22526 350 ft 129 kts 45°
2026-04-26 11:40 51.88565 0.23573 757 ft 142 kts 45°
2026-04-26 11:41 51.89300 0.24680 1391 ft 154 kts 45°
2026-04-26 11:42 51.95287 0.20502 2975 ft 234 kts 240°
2026-04-26 11:43 51.94299 0.18464 2986 ft 233 kts 224°
2026-04-26 11:43 51.93134 0.16637 2984 ft 232 kts 222°
2026-04-26 11:43 51.91949 0.14869 2984 ft 232 kts 221°
2026-04-26 11:43 51.90760 0.13116 2982 ft 232 kts 221°
2026-04-26 11:44 51.89559 0.11349 2981 ft 233 kts 221°
2026-04-26 11:44 51.88360 0.09591 2982 ft 233 kts 221°
2026-04-26 11:44 51.87142 0.07804 2980 ft 232 kts 221°
2026-04-26 11:44 51.85968 0.06086 2917 ft 227 kts 221°
2026-04-26 11:45 51.84820 0.04404 2769 ft 219 kts 221°
2026-04-26 11:45 51.83713 0.02772 2612 ft 212 kts 221°
2026-04-26 11:45 51.82642 0.01180 2470 ft 208 kts 221°
2026-04-26 11:45 51.81564 -0.00422 2467 ft 210 kts 221°
2026-04-26 11:46 51.80430 -0.01840 2445 ft 206 kts 200°
2026-04-26 11:46 51.79047 -0.02104 2438 ft 196 kts 163°
2026-04-26 11:46 51.77933 -0.01021 2439 ft 188 kts 125°
2026-04-26 11:46 51.77506 0.00934 2451 ft 188 kts 87°
2026-04-26 11:47 51.77748 0.03008 2468 ft 188 kts 75°
2026-04-26 11:47 51.78157 0.05023 2462 ft 188 kts 72°
2026-04-26 11:47 51.78596 0.07016 2458 ft 188 kts 71°
2026-04-26 11:47 51.79135 0.08943 2455 ft 189 kts 57°
2026-04-26 11:48 51.79942 0.10600 2379 ft 190 kts 48°
2026-04-26 11:48 51.80880 0.12092 2143 ft 187 kts 44°
2026-04-26 11:48 51.81821 0.13464 1970 ft 175 kts 43°
2026-04-26 11:48 51.82684 0.14735 1721 ft 165 kts 45°
2026-04-26 11:49 51.83494 0.15948 1481 ft 152 kts 45°
2026-04-26 11:49 51.84241 0.17071 1237 ft 140 kts 45°
2026-04-26 11:49 51.84929 0.18102 1050 ft 132 kts 45°
2026-04-26 11:49 51.85585 0.19117 902 ft 132 kts 47°
2026-04-26 11:50 51.86262 0.20145 752 ft 133 kts 45°
2026-04-26 11:50 51.86949 0.21154 569 ft 135 kts 44°
2026-04-26 11:50 51.87636 0.22179 399 ft 134 kts 45°
2026-04-26 11:50 51.88273 0.23140 341 ft 108 kts 43°
2026-04-26 11:51 51.88702 0.23785 341 ft 59 kts 42°
2026-04-26 11:51 51.88936 0.24135 341 ft 34 kts 43°
2026-04-26 11:51 51.89061 0.24390 341 ft 27 kts 62°
2026-04-26 11:51 51.89131 0.24660 341 ft 25 kts 67°
2026-04-26 11:52 51.89169 0.24808 341 ft 6 kts 68°
2026-04-26 11:52 51.89158 0.24879 341 ft 7 kts 118°
2026-04-26 11:52 51.89166 0.24965 341 ft 9 kts 47°
2026-04-26 11:52 51.89214 0.25045 341 ft 10 kts 54°
2026-04-26 11:53 51.89243 0.25151 341 ft 8 kts 96°
2026-04-26 11:53 51.89211 0.25224 341 ft 8 kts 134°
2026-04-26 11:53 51.89165 0.25302 341 ft 10 kts 133°
2026-04-26 11:54 51.89058 0.25488 341 ft 11 kts 132°
2026-04-26 11:54 51.89021 0.25554 341 ft 4 kts 133°
2026-04-26 11:54 51.89012 0.25589 341 ft 3 kts 72°
2026-04-26 11:54 51.89036 0.25629 341 ft 5 kts 42°
2026-04-26 11:55 51.89046 0.25646 341 ft 1 kts 42°
2026-04-26 11:55 51.89059 0.25664 341 ft 1 kts 43°